Location: Unspecified
(0.0000°N, 0.0000°E)
Time: 19:05:52
(UTC+00:00)

Transit 4A - Visible Passes

Search period start: 18 April 2019 00:00
Search period end: 28 April 2019 00:00
Orbit: 863 x 982 km, 66.8° (Epoch: 17 April)

Date Brightness Start Highest point End Pass type
(mag) Time Alt. Az. Time Alt. Az. Time Alt. Az.
24 Apr 9.1 19:08:50 10° SSE 19:11:14 20° SE 19:11:14 20° SE visible
24 Apr 10.5 20:54:56 10° WSW 20:55:00 10° WSW 20:55:00 10° WSW visible
25 Apr 8.0 19:17:19 10° S 19:22:51 44° ESE 19:28:31 10° NE visible
25 Apr 10.4 21:06:03 10° W 21:08:59 14° WNW 21:11:57 10° NW visible
26 Apr 7.6 19:26:17 10° SSW 19:32:08 78° ESE 19:38:09 10° NNE visible
27 Apr 8.3 19:35:39 10° SSW 19:41:25 61° WNW 19:47:21 10° N visible
